Last updated on April 8, 2020, 12:02 a.m. UTC
1 45341U 20016A 20098.65046441 -.03613273 00000-0 -72218-1 0 9993 2 45341 51.6432 337.5161 0010224 31.3734 354.3442 15.50379704 4882
Satellite is not in orbit.